Theta_e
324 316 314 310 306 301 299 298 296 295 295 294 292 291 292 292 292 292 291 292 293 292
324 317 315 310 306 303 298 296 295 292 291 290 289 289 290 290 288 290 290 292 292 292
316 313 308 304 301 297 296 292 292 291 289 289 289 288 289 288 289 289 290 291 290 289
309 304 301 299 298 293 293 291 290 290 290 289 288 288 288 289 289 288 290 288 288 287
299 297 296 294 293 292 291 291 291 291 291 289 289 288 288 288 288 287 287 287 286 285
294 293 293 291 292 292 291 292 291 290 290 289 289 288 288 288 288 287 287 286 285 284
292 292 292 292 292 292 292 291 290 290 290 289 289 288 287 286 286 286 286 285 285 284
292 292 292 291 291 290 290 290 290 289 288 288 287 286 286 285 285 285 284 284 284 284
291 290 289 288 288 287 287 286 286 285 285 285 286 288 287 286 284 283 283 283 283 284
288 287 286 286 285 284 284 284 284 284 284 284 284 287 287 288 285 284 284 284 283 282
286 285 284 284 283 283 283 283 283 282 283 282 282 285 286 287 285 285 285 285 285 284
285 284 283 283 283 282 283 282 282 282 282 281 282 285 285 285 283 283 283 284 284 284
285 284 284 284 284 283 282 282 281 282 282 283 282 284 285 284 283 282 282 283 283 283
281 281 282 282 281 281 281 281 281 281 282 281 281 281 283 284 282 282 282 282 282 283
Wind_Speed
16 10 10 12 10 8 7 7 8 7 7 6 6 5 5 3 3 3 3 2 1 2
13 12 10 12 10 9 8 7 8 8 8 7 6 5 3 3 4 3 3 2 1 1
12 10 9 10 12 11 11 10 10 9 8 7 3 6 4 3 3 2 1 2 3 2
10 10 11 9 10 11 13 11 8 10 8 9 5 3 3 3 3 4 3 2 4 4
12 11 11 11 11 11 11 9 10 7 6 6 7 6 4 4 3 4 5 5 4 5
10 11 11 13 14 13 12 6 9 5 8 5 7 6 5 2 4 4 4 4 5 5
10 12 13 11 11 11 11 7 5 5 5 5 6 4 4 5 5 5 5 5 6 7
9 12 10 12 8 7 9 5 4 5 4 3 4 4 5 5 4 5 6 6 8 8
12 9 11 7 6 7 6 5 3 2 1 3 2 3 6 5 4 5 6 9 8 8
9 9 8 7 7 6 5 4 3 3 4 3 2 5 8 9 5 6 9 9 8 8
8 8 7 5 5 5 3 2 2 3 3 4 3 8 10 10 8 9 11 10 11 11
7 7 6 6 6 4 3 3 3 3 4 5 4 8 10 9 6 9 11 10 11 11
10 9 8 6 6 4 4 4 3 4 4 5 6 9 11 10 5 9 8 9 11 15
10 9 8 7 5 5 5 4 3 3 3 2 5 8 14 14 7 7 8 9 9 8
Wind_Direction
187 176 176 175 165 166 160 157 144 143 137 118 97 91 107 101 97 103 93 125 263 109
191 179 179 167 158 155 135 126 132 125 117 114 107 103 89 106 92 97 104 110 69 288
171 167 156 151 150 138 130 125 130 119 113 89 87 107 113 79 84 111 151 131 220 202
153 148 141 136 133 129 124 124 130 130 134 122 133 130 124 162 185 194 178 192 230 216
130 126 125 118 115 118 122 122 125 121 106 127 157 180 178 198 192 226 203 211 220 233
116 118 121 121 117 125 123 122 118 136 141 155 165 197 208 195 205 225 234 223 220 234
95 103 109 100 112 114 113 130 131 137 143 176 181 183 188 200 207 216 229 226 227 229
88 100 98 101 102 115 95 118 136 151 166 167 186 195 197 205 224 238 245 236 235 234
77 77 74 82 92 78 79 86 97 89 125 218 223 230 240 235 233 239 249 257 252 240
77 74 74 70 72 78 95 124 135 178 207 241 245 259 259 256 258 262 255 256 261 260
62 74 70 80 92 96 90 84 25 341 328 299 297 300 279 265 255 256 259 258 254 257
48 65 72 67 62 53 52 45 32 353 326 308 291 284 288 287 270 262 265 271 272 269
35 46 48 46 44 28 23 8 349 342 336 326 312 315 313 311 287 283 281 280 275 264
36 41 29 41 33 27 19 3 3 347 328 313 325 341 349 341 320 302 301 294 292 287